SIRIUSSAT-1 (43595 NORAD) Tracking and Keplerian Element Data

This shows tracking and keplerian element data for the satellite.

Feedback or suggestion? Click here.




ElementValue
Catalog43595
NameSIRIUSSAT-1
Epoch Orbit3936
Epoch Day115.39976307
Epoch Year2019
RAAN257.2007
Inclination51.6365
Eccentricity0.0003549
Argument of Perigee265.9286
Mean Anonmoly94.1301
Mean Motion15.59762251
Decay Rate0.00014546
L11 43595U 98067PG 19115.39976307 .00014546 00000-0 18403-3 0 9996
L22 43595 51.6365 257.2007 0003549 265.9286 94.1301 15.59762251 39368

Live tracking and technical data element details for SIRIUSSAT-1 (NORAD 43595). SIRIUSSAT-1 can be tracked NOW for your location showing map with azimuth and elevation plus other details from your city location.

Track the satellite on the map from your city or location and see movement details for azimuth, elevation, latitude, longitude, range, height, and movement on the map or in text.







IsCatalogInMostPopularTable: catalog: 43595, numindb: 113
Update: records affected: 1



GetName: 43595 SIRIUSSAT-1

Hit Count: updated at: Fri, 26 Apr 2019 15:43:34 GMT